EW5728 Weather Reports


Display with metric or nautical units.
time (UTC)temp
F
wind
direction
speed
MPH
gust
MPH
rain 1hr
in
rain 24hr
in
rain mn
in
humidity
%
barometer
mb
20260507060552 59 359 11.0 15.0 0.10 0.16 0.10 95 1014.2
20260507060053 59 49 5.0 11.0 0.10 0.16 0.10 94 1013.6
20260507055547 59 354 5.0 12.0 0.09 0.15 0.09 94 1013.9
20260507055047 59 4 6.0 16.0 0.08 0.14 0.08 94 1013.9
20260507054548 60 21 9.0 16.0 0.07 0.13 0.07 92 1014.1
20260507054045 60 8 11.0 16.0 0.05 0.11 0.05 91 1014.9
20260507053543 61 342 11.0 15.0 0.04 0.10 0.04 90 1015.3
20260507053042 60 346 12.0 15.0 0.03 0.09 0.03 91 1015.1
20260507052543 60 351 8.0 16.0 0.03 0.09 0.03 93 1014.7
20260507052041 60 352 11.0 17.0 0.02 0.08 0.02 92 1014.6
20260507051540 61 341 11.0 17.0 0.02 0.08 0.02 92 1014.7
20260507051037 61 63 7.0 18.0 0.02 0.08 0.02 90 1014.6
20260507050540 62 339 16.0 18.0 0.00 0.06 0.00 88 1015.0
20260507050037 63 332 14.0 17.0 0.00 0.06 0.00 87 1015.1
20260507045533 64 329 11.0 14.0 0.00 0.06 0.00 87 1014.7
20260507045033 64 328 9.0 12.0 0.00 0.06 0.00 85 1014.5
20260507044531 64 341 8.0 10.0 0.00 0.06 0.00 84 1014.4
20260507044032 64 326 8.0 9.0 0.00 0.06 0.00 85 1014.3
20260507043532 64 326 7.0 11.0 0.00 0.06 0.00 85 1014.3
20260507043030 64 332 9.0 11.0 0.00 0.06 0.00 85 1014.2
20260507042529 65 323 6.0 13.0 0.00 0.06 0.00 85 1014.2
20260507042129 65 353 9.0 13.0 0.00 0.06 0.00 85 1014.3
20260507041528 65 342 9.0 13.0 0.00 0.06 0.00 87 1014.2
20260507041026 65 329 9.0 13.0 0.00 0.06 0.00 89 1014.1
20260507040524 64 325 8.0 10.0 0.00 0.06 0.00 93 1014.2
20260507040026 65 321 6.0 13.0 0.00 0.06 0.06 93 1014.1
20260507035523 64 316 10.0 13.0 0.00 0.06 0.06 93 1014.2
20260507035023 64 332 4.0 6.0 0.00 0.06 0.06 95 1014.1
20260507034532 64 331 3.0 6.0 0.00 0.06 0.06 94 1014.0
20260507034022 64 321 4.0 8.0 0.00 0.06 0.06 94 1014.0
20260507033526 65 314 6.0 8.0 0.00 0.06 0.06 92 1014.0
20260507033022 66 199 2.0 4.0 0.00 0.06 0.06 90 1013.7
20260507032522 66 209 2.0 7.0 0.00 0.06 0.06 90 1013.6
20260507032021 66 191 3.0 7.0 0.00 0.06 0.06 89 1013.5
20260507031521 66 198 3.0 9.0 0.00 0.06 0.06 89 1013.4
20260507031020 66 189 6.0 9.0 0.00 0.06 0.06 89 1013.6
20260507030520 67 193 4.0 8.0 0.00 0.06 0.06 89 1013.7
20260507030020 67 154 4.0 8.0 0.00 0.06 0.06 89 1013.6
20260507025519 67 172 5.0 9.0 0.00 0.06 0.06 89 1013.6
20260507025019 66 160 3.0 9.0 0.00 0.06 0.06 89 1013.4
20260507024523 66 170 4.0 9.0 0.00 0.06 0.06 90 1013.4
20260507024021 66 180 3.0 6.0 0.00 0.06 0.06 91 1013.4
20260507023519 65 236 2.0 6.0 0.00 0.06 0.06 92 1013.4
20260507023023 65 149 1.0 6.0 0.00 0.06 0.06 92 1013.4
20260507022519 65 161 1.0 3.0 0.00 0.06 0.06 93 1013.6
20260507022023 64 120 1.0 3.0 0.00 0.06 0.06 93 1013.7
20260507021519 64 167 0.0 3.0 0.00 0.06 0.06 93 1013.7
20260507021018 64 147 0.0 3.0 0.00 0.06 0.06 93 1013.5
20260507020521 64 130 0.0 2.0 0.00 0.06 0.06 93 1013.5
20260507020028 64 131 0.0 1.0 0.00 0.06 0.06 93 1013.5
20260507015517 64 131 0.0 0.0 0.00 0.06 0.06 93 1013.6
20260507015017 64 131 0.0 0.0 0.00 0.06 0.06 93 1013.8
20260507014517 64 131 0.0 0.0 0.00 0.06 0.06 93 1014.0
20260507014017 64 131 0.0 0.0 0.00 0.06 0.06 93 1014.3
20260507013516 64 131 0.0 0.0 0.00 0.06 0.06 93 1014.3
20260507013033 64 131 0.0 0.0 0.00 0.06 0.06 93 1014.4
20260507012516 64 131 0.0 0.0 0.00 0.06 0.06 93 1014.3
20260507012016 64 131 0.0 0.0 0.00 0.06 0.06 93 1014.3
20260507011516 64 131 0.0 1.0 0.00 0.06 0.06 93 1014.1
20260507011014 64 131 0.0 1.0 0.00 0.06 0.06 93 1014.0
20260507010515 64 139 0.0 0.0 0.00 0.06 0.06 93 1014.0
20260507010015 64 139 0.0 1.0 0.00 0.06 0.06 92 1014.0
20260507005516 64 164 0.0 0.0 0.00 0.06 0.06 92 1013.6
20260507005014 64 206 0.0 0.0 0.00 0.06 0.06 92 1013.8
20260507004514 64 209 0.0 0.0 0.00 0.06 0.06 91 1013.9
20260507004014 64 209 0.0 0.0 0.00 0.06 0.06 91 1013.9
20260507003515 65 209 0.0 0.0 0.00 0.06 0.06 90 1013.7
20260507003013 65 209 0.0 0.0 0.00 0.06 0.06 90 1013.7
20260507002513 65 209 0.0 0.0 0.00 0.06 0.06 89 1013.7
20260507002013 66 209 0.0 1.0 0.00 0.06 0.06 88 1013.9
20260507001513 66 209 0.0 3.0 0.00 0.06 0.06 87 1013.7
20260507001014 66 193 0.0 3.0 0.00 0.06 0.06 87 1013.7
20260507000512 66 173 0.0 3.0 0.00 0.06 0.06 87 1013.8
20260507000015 67 156 0.0 4.0 0.00 0.06 0.06 87 1013.6
20260506235515 67 189 1.0 6.0 0.00 0.06 0.06 87 1013.5
20260506235011 67 191 2.0 6.0 0.00 0.06 0.06 87 1013.4
20260506234518 66 184 3.0 8.0 0.00 0.06 0.06 87 1013.4
20260506234011 66 171 4.0 7.0 0.00 0.06 0.06 87 1013.1
20260506233511 66 194 3.0 5.0 0.00 0.06 0.06 88 1013.1
20260506233013 66 143 2.0 5.0 0.00 0.06 0.06 89 1013.1
20260506232510 66 198 2.0 6.0 0.00 0.06 0.06 89 1013.2
20260506232010 66 189 3.0 6.0 0.00 0.06 0.06 88 1013.2
20260506231509 67 201 4.0 6.0 0.00 0.06 0.06 87 1013.3
20260506231008 67 174 4.0 6.0 0.00 0.06 0.06 87 1013.1
20260506230508 66 167 3.0 6.0 0.00 0.06 0.06 88 1013.1
20260506230009 66 188 3.0 6.0 0.00 0.06 0.06 89 1013.0
20260506225508 66 167 3.0 5.0 0.00 0.06 0.06 90 1013.0
20260506225008 66 203 3.0 6.0 0.00 0.06 0.06 90 1013.2
20260506224509 66 205 4.0 9.0 0.00 0.06 0.06 90 1013.2
20260506224008 66 206 6.0 9.0 0.00 0.06 0.06 89 1013.1
20260506223507 66 183 4.0 7.0 0.00 0.06 0.06 89 1013.1
20260506223007 66 201 5.0 9.0 0.00 0.06 0.06 89 1013.1
20260506222507 66 202 5.0 12.0 0.00 0.06 0.06 89 1013.2
20260506222007 67 212 7.0 13.0 0.00 0.06 0.06 88 1013.1
20260506221507 66 224 8.0 13.0 0.00 0.06 0.06 88 1013.3
20260506221005 66 217 9.0 12.0 0.00 0.06 0.06 88 1013.3
20260506220505 66 212 9.0 12.0 0.00 0.06 0.06 88 1013.2
20260506220015 66 216 9.0 12.0 0.00 0.06 0.06 88 1013.2
20260506215509 67 210 9.0 14.0 0.00 0.06 0.06 88 1013.1
20260506215006 66 211 9.0 14.0 0.00 0.06 0.06 88 1013.2
20260506214507 66 198 8.0 15.0 0.00 0.06 0.06 88 1013.2
20260506214006 67 203 8.0 15.0 0.00 0.06 0.06 88 1013.2
20260506213504 67 202 10.0 13.0 0.00 0.06 0.06 88 1013.1
20260506213004 67 211 9.0 14.0 0.00 0.06 0.06 87 1013.1
20260506212503 67 210 11.0 15.0 0.00 0.06 0.06 87 1013.0
20260506212004 67 217 11.0 16.0 0.00 0.06 0.06 87 1012.9
20260506211503 67 218 13.0 16.0 0.00 0.06 0.06 87 1012.9
20260506211003 67 214 13.0 16.0 0.00 0.06 0.06 86 1013.0
20260506210503 67 214 12.0 16.0 0.00 0.06 0.06 87 1012.9
20260506210007 67 213 14.0 19.0 0.00 0.06 0.06 86 1012.7
20260506205502 67 207 13.0 20.0 0.00 0.06 0.06 86 1012.6
20260506205001 67 213 15.0 22.0 0.00 0.06 0.06 86 1012.8
20260506204501 66 227 14.0 22.0 0.00 0.06 0.06 86 1012.8
20260506204001 66 210 12.0 18.0 0.00 0.06 0.06 87 1012.7
20260506203501 66 212 11.0 15.0 0.00 0.06 0.06 87 1012.8
20260506203001 66 210 12.0 15.0 0.00 0.06 0.06 87 1012.9
20260506202501 66 204 10.0 14.0 0.00 0.06 0.06 88 1012.9
20260506202001 66 204 11.0 14.0 0.00 0.06 0.06 87 1012.8
20260506201604 66 215 8.0 15.0 0.00 0.06 0.06 88 1012.8
20260506201059 66 162 10.0 16.0 0.00 0.06 0.06 87 1012.7
20260506200559 66 175 9.0 15.0 0.00 0.06 0.06 87 1012.8
20260506200059 66 195 9.0 17.0 0.00 0.06 0.06 87 1012.7
20260506195601 66 207 10.0 17.0 0.00 0.06 0.06 87 1012.9
20260506195058 66 193 10.0 18.0 0.00 0.06 0.06 88 1013.0
20260506194557 66 207 13.0 19.0 0.00 0.06 0.06 87 1013.1
20260506194057 66 179 13.0 19.0 0.00 0.06 0.06 88 1013.1
20260506193555 66 197 13.0 19.0 0.00 0.06 0.06 88 1013.2
20260506193055 65 195 15.0 19.0 0.00 0.06 0.06 88 1013.3
20260506192555 65 208 15.0 21.0 0.00 0.06 0.06 88 1013.3
20260506192056 65 211 16.0 21.0 0.00 0.06 0.06 87 1013.3
20260506191557 65 191 14.0 18.0 0.00 0.06 0.06 88 1013.4
20260506191054 65 204 13.0 17.0 0.00 0.06 0.06 88 1013.4
20260506190553 65 205 14.0 19.0 0.00 0.06 0.06 88 1013.4
20260506190055 65 205 14.0 19.0 0.00 0.06 0.06 88 1013.5
20260506185551 65 204 12.0 20.0 0.00 0.06 0.06 88 1013.5
20260506185051 65 193 14.0 20.0 0.00 0.06 0.06 87 1013.6
20260506184551 65 203 15.0 20.0 0.00 0.06 0.06 87 1013.7
20260506184051 65 208 15.0 24.0 0.00 0.06 0.06 88 1013.7
20260506183550 65 209 17.0 24.0 0.00 0.06 0.06 88 1013.7
20260506183050 65 191 16.0 23.0 0.00 0.06 0.06 88 1013.7
20260506182548 65 207 17.0 23.0 0.00 0.06 0.06 88 1013.9
20260506182048 65 212 18.0 22.0 0.00 0.06 0.06 87 1014.0
20260506181548 65 191 15.0 21.0 0.00 0.06 0.06 88 1013.9
20260506181047 64 204 16.0 23.0 0.00 0.06 0.06 89 1014.0
20260506180547 64 209 15.0 22.0 0.00 0.06 0.06 89 1014.1
20260506180047 64 186 17.0 21.0 0.00 0.06 0.06 88 1014.0
20260506175547 64 206 15.0 23.0 0.00 0.06 0.06 89 1014.1
20260506175046 64 196 15.0 23.0 0.00 0.06 0.06 89 1014.3
20260506174547 64 201 18.0 23.0 0.00 0.06 0.06 88 1014.3
20260506174045 64 200 16.0 23.0 0.00 0.06 0.06 89 1014.4
20260506173547 64 194 18.0 26.0 0.00 0.06 0.06 89 1014.5
20260506173056 64 209 20.0 27.0 0.00 0.06 0.06 88 1014.4
20260506172544 64 202 21.0 27.0 0.00 0.06 0.06 88 1014.4
20260506172044 64 195 20.0 25.0 0.00 0.06 0.06 88 1014.3
20260506171551 64 144 18.0 24.0 0.00 0.06 0.06 88 1014.3
20260506171042 64 184 18.0 24.0 0.00 0.06 0.06 88 1014.2
20260506170542 64 200 18.0 25.0 0.00 0.06 0.06 88 1014.2
20260506170042 64 205 16.0 29.0 0.00 0.06 0.06 89 1014.3
20260506165543 64 208 16.0 29.0 0.00 0.06 0.06 88 1014.2
20260506165041 64 204 20.0 27.0 0.00 0.06 0.06 87 1014.3
20260506164552 64 181 15.0 26.0 0.00 0.06 0.06 88 1014.0
20260506164038 64 185 14.0 24.0 0.00 0.06 0.06 88 1014.1
20260506163538 64 197 12.0 22.0 0.01 0.06 0.06 89 1014.2
20260506163041 64 184 14.0 22.0 0.01 0.06 0.06 89 1014.4
20260506162538 64 165 12.0 26.0 0.01 0.06 0.06 89 1014.3
20260506162038 64 206 15.0 26.0 0.02 0.06 0.06 88 1014.7
20260506161538 64 195 17.0 24.0 0.02 0.06 0.06 87 1014.5
20260506161035 64 158 12.0 19.0 0.03 0.06 0.06 87 1014.5
20260506160535 64 206 11.0 19.0 0.04 0.06 0.06 87 1014.5
20260506160037 64 154 10.0 18.0 0.04 0.06 0.06 88 1014.3
20260506155533 63 164 8.0 15.0 0.05 0.06 0.06 89 1014.3
20260506155032 63 178 6.0 15.0 0.05 0.06 0.06 90 1014.7
20260506154532 63 186 7.0 12.0 0.06 0.06 0.06 90 1015.0
20260506154032 63 183 7.0 13.0 0.05 0.05 0.05 90 1015.1
20260506153532 63 205 8.0 13.0 0.05 0.05 0.05 90 1015.4
20260506153032 63 176 8.0 13.0 0.05 0.05 0.05 89 1015.5
20260506152533 63 167 8.0 14.0 0.05 0.05 0.05 89 1015.5
20260506152030 63 201 10.0 14.0 0.04 0.04 0.04 89 1015.6
20260506151528 63 189 9.0 17.0 0.04 0.04 0.04 88 1015.5
20260506151027 64 205 11.0 18.0 0.03 0.03 0.03 88 1015.8
20260506150526 64 179 11.0 19.0 0.02 0.02 0.02 87 1015.5
20260506150025 64 166 10.0 14.0 0.02 0.02 0.02 86 1015.6
20260506145525 64 153 9.0 16.0 0.01 0.01 0.01 86 1015.5
20260506145024 64 203 10.0 16.0 0.01 0.01 0.01 85 1015.4
20260506144530 64 182 10.0 18.0 0.00 0.00 0.00 85 1015.7
20260506144025 64 165 11.0 18.0 0.00 0.00 0.00 84 1015.6
20260506143523 65 186 9.0 17.0 0.00 0.00 0.00 85 1015.7
20260506143032 65 188 12.0 17.0 0.00 0.00 0.00 84 1015.8
20260506142526 65 200 10.0 15.0 0.00 0.00 0.00 83 1015.6
20260506142022 65 205 10.0 17.0 0.00 0.00 0.00 83 1015.6
20260506141522 65 210 12.0 17.0 0.00 0.00 0.00 81 1015.6
20260506141022 65 183 11.0 17.0 0.00 0.00 0.00 81 1015.7
20260506140522 65 198 10.0 18.0 0.00 0.00 0.00 82 1015.6
20260506140022 65 202 12.0 18.0 0.00 0.00 0.00 82 1015.6
20260506135521 65 190 12.0 19.0 0.00 0.00 0.00 81 1015.6
20260506135021 65 172 13.0 19.0 0.00 0.00 0.00 80 1015.7
20260506134521 65 205 11.0 19.0 0.00 0.00 0.00 81 1015.6
20260506134020 65 193 13.0 22.0 0.00 0.00 0.00 80 1015.5
20260506133520 65 193 12.0 22.0 0.00 0.00 0.00 80 1015.5
20260506133021 65 175 13.0 20.0 0.00 0.00 0.00 80 1015.4
20260506132519 66 199 13.0 20.0 0.00 0.00 0.00 79 1015.4
20260506132019 66 183 10.0 17.0 0.00 0.00 0.00 79 1015.4
20260506131519 66 191 11.0 18.0 0.00 0.00 0.00 78 1015.3
20260506131018 66 176 12.0 18.0 0.00 0.00 0.00 79 1015.4
20260506130521 65 155 12.0 19.0 0.00 0.00 0.00 79 1015.3
20260506130020 65 212 11.0 21.0 0.00 0.00 0.00 79 1015.4
20260506125517 65 169 12.0 21.0 0.00 0.00 0.00 79 1015.5
20260506125020 65 207 14.0 21.0 0.00 0.00 0.00 79 1015.6
20260506124517 65 186 12.0 23.0 0.00 0.00 0.00 78 1015.5
20260506124016 65 207 12.0 23.0 0.00 0.00 0.00 78 1015.5
20260506123516 65 203 15.0 23.0 0.00 0.00 0.00 79 1015.6
20260506123017 65 133 15.0 23.0 0.00 0.00 0.00 78 1015.6
20260506122517 65 158 15.0 23.0 0.00 0.00 0.00 78 1015.7
20260506122114 65 182 15.0 24.0 0.00 0.00 0.00 79 1015.6
20260506121516 65 204 14.0 23.0 0.00 0.00 0.00 78 1015.7
20260506121012 65 169 15.0 22.0 0.00 0.00 0.00 79 1015.7
20260506120512 65 196 14.0 23.0 0.00 0.00 0.00 78 1015.6
20260506120011 65 188 17.0 23.0 0.00 0.00 0.00 78 1015.6
20260506115509 65 208 12.0 22.0 0.00 0.00 0.00 78 1015.6
20260506115009 65 201 11.0 22.0 0.00 0.00 0.00 79 1015.5
20260506114511 65 171 14.0 22.0 0.00 0.00 0.00 79 1015.5
20260506114008 65 176 13.0 22.0 0.00 0.00 0.00 79 1015.5
20260506113508 65 186 13.0 22.0 0.00 0.00 0.00 78 1015.4
20260506113009 65 194 12.0 21.0 0.00 0.00 0.00 79 1015.4
20260506112506 65 191 10.0 21.0 0.00 0.00 0.00 80 1015.3
20260506112006 65 175 9.0 19.0 0.00 0.00 0.00 80 1015.2
20260506111505 65 193 11.0 19.0 0.00 0.00 0.00 80 1015.4
20260506111003 65 198 10.0 18.0 0.00 0.00 0.00 80 1015.3
20260506110502 65 151 9.0 18.0 0.00 0.00 0.00 81 1015.2
20260506110002 65 136 7.0 17.0 0.00 0.00 0.00 81 1015.1
20260506105502 65 196 9.0 17.0 0.00 0.00 0.00 81 1015.2
20260506105002 65 204 9.0 21.0 0.00 0.00 0.00 82 1015.1
20260506104501 65 200 13.0 21.0 0.00 0.00 0.00 82 1015.1
20260506104100 65 161 11.0 17.0 0.00 0.00 0.00 82 1015.1
20260506103559 65 150 9.0 18.0 0.00 0.00 0.00 82 1015.1
20260506103100 65 213 10.0 18.0 0.00 0.00 0.00 82 1015.1
20260506102600 64 176 12.0 18.0 0.00 0.00 0.00 82 1015.1
20260506102059 64 169 10.0 18.0 0.00 0.00 0.00 82 1014.9
20260506101558 64 173 10.0 18.0 0.00 0.00 0.00 82 1015.1
20260506101055 64 165 9.0 16.0 0.00 0.00 0.00 83 1015.0
20260506100556 64 179 10.0 17.0 0.00 0.00 0.00 83 1015.2
20260506100055 64 145 10.0 19.0 0.00 0.00 0.00 83 1015.3
20260506095554 64 176 11.0 20.0 0.00 0.00 0.00 83 1015.3
20260506095054 64 193 10.0 18.0 0.00 0.00 0.00 83 1015.2
20260506094554 65 194 10.0 20.0 0.00 0.00 0.00 83 1015.2
20260506094052 65 200 11.0 21.0 0.00 0.00 0.00 83 1015.2
20260506093551 65 182 13.0 21.0 0.00 0.00 0.00 82 1015.3
20260506093053 65 190 10.0 18.0 0.00 0.00 0.00 82 1015.1
20260506092550 65 167 9.0 18.0 0.00 0.00 0.00 83 1015.1
20260506092051 65 194 12.0 19.0 0.00 0.00 0.00 83 1015.2
20260506091549 65 192 12.0 19.0 0.00 0.00 0.00 82 1015.2
20260506091047 65 202 12.0 19.0 0.00 0.00 0.00 82 1015.1
20260506090548 65 205 10.0 17.0 0.00 0.00 0.00 82 1015.2
20260506090046 65 150 11.0 18.0 0.00 0.00 0.00 82 1015.2
20260506085546 65 188 11.0 20.0 0.00 0.00 0.00 82 1015.2
20260506085045 65 184 13.0 20.0 0.00 0.00 0.00 82 1015.2
20260506084544 65 169 10.0 19.0 0.00 0.00 0.00 82 1015.2
20260506084044 65 151 10.0 18.0 0.00 0.00 0.00 82 1015.1
20260506083543 65 156 9.0 20.0 0.00 0.00 0.00 82 1015.0
20260506083045 65 175 10.0 20.0 0.00 0.00 0.00 81 1014.9
20260506082543 65 193 13.0 20.0 0.00 0.00 0.00 81 1014.8
20260506082040 65 196 10.0 19.0 0.00 0.00 0.00 81 1014.8
20260506081539 65 191 10.0 19.0 0.00 0.00 0.00 81 1014.9
20260506081037 66 150 9.0 19.0 0.00 0.00 0.00 81 1014.9
20260506080540 65 178 9.0 18.0 0.00 0.00 0.00 81 1014.9
20260506073030 66 214 11.0 19.0 0.00 0.00 0.00 81 1015.3
20260506072528 66 161 10.0 19.0 0.00 0.00 0.00 81 1015.4
20260506072028 66 210 12.0 22.0 0.00 0.00 0.00 81 1015.3
20260506071527 66 194 12.0 20.0 0.00 0.00 0.00 81 1015.2
20260506071025 67 209 13.0 20.0 0.00 0.00 0.00 80 1015.3
20260506070524 67 157 12.0 21.0 0.00 0.00 0.00 80 1015.3
20260506062516 68 183 12.0 22.0 0.00 0.00 0.00 79 1015.4
20260506062016 68 198 12.0 20.0 0.00 0.00 0.00 78 1015.3
20260506061519 68 181 10.0 21.0 0.00 0.00 0.00 78 1015.4
20260506061016 68 211 11.0 21.0 0.00 0.00 0.00 78 1015.4